Torna al catalogo

DELTA 2 DEB

DPAF

AttivoLEO
NORAD 27000·DEBRIS·🇺🇸 United States

Lanciato Dec 7, 2001 da Vandenberg Space Force Base

Loading…

Prossimi Passaggi (prossime 24 ore)

TLE

AggiornatoSource: Space-Track

Epoca: Sep 14, 2026, 13:29 UTC

1 27000U 01055D   26257.56231286 -.00000001  00000-0  24710-3 0  9994
2 27000  66.0404 184.1343 0011165 294.1925 238.5949 12.85020410161934

Traccia DELTA 2 DEB in tempo reale con AllMySat

Download on the App Store